Aérodrome :
LOGIN :

S'inscrire | Disclaimer

   EN    FR    IT 

 










Légende :    VFR   VFR Marginal   IFR   IFR Intensif   IFR Très Intensif
Visi : 
Plafond : 
>= 8 km
>= 3000ft
5 à 8 km
1000 à 3000 ft
1500m à 5 km
500 à 1000 ft
800 à 1500m
200 à 500 ft
< 800m
< 200 ft
Symboles :   Orages  Brouillard  Fortes neiges  Fortes précipitations  Vent > 20 kt
SIGMETs :   Divers  Orages  Givrage  Turbulence  Onde Orograph.  Cendres Volcan.







- Altitude de l'aérodrome : 9 ft
- Code IATA : MIR


DTMB - Habib Bourguliba Int. Monastir

DERNIER METAR :
  • 181800Z 26006KT 240V300 9999 SCT020 11/04 Q1023

METARs EXPIRÉS :
  • 181730Z 28009KT 9999 SCT020 12/04 Q1023
  • 181700Z 29010KT 250V320 9999 SCT020 12/04 Q1023
  • 181630Z 27008KT 9999 SCT020 12/04 Q1023
  • 181600Z 28009KT 250V320 9999 SCT020 13/04 Q1023

TAF TAF DTMB
Valide du 18 à 18h jusqu'au 19 à 18h UTC


181700Z 1818/1918 29012KT 9999 SCT020
BECMG 1911/1913 02015KT
Pas de NOTAMs connus pour ce terrain.



MET'MAP, la Météo Aéronautique d'un coup d'oeil ! - Copyright ORBIFLY Décembre 2007 - Disclaimer

ORBIFLY MET'MAP TEAM :

Programmation & Développement : Alexandra Zaïnal
Conception & Développement : Baudouin d'Aumeries
Co-Programmation & Développement : Marc-Olivier Méhu
Soutien technique & logistique : Manuel Goepfert

Contact : metmap@orbifly.com




SOURCES & CREDITS :

   NOAA